SOLRAD 1 (GREB)

导读

SOLRAD 1(又名GREB)是美国于1960年6月22日发射的科学实验卫星,它是SOLRAD系列太阳辐射观测卫星的首星,也是人类早期太阳观测卫星的代表。该卫星搭载太阳X射线和紫外线探测设备,旨在从太空测量太阳辐射,填补地面观测受大气吸收的空白,为太阳物理研究提供早期数据。SOLRAD 1开启了空间太阳监测的先河,推动了太阳活动与空间天气研究的发展,在美国航天探索早期具有里程碑意义。

基本信息
目录编号:
46
目录名称:
SOLRAD 1 (GREB)
国际标识:
1960-007B
轨道中心:
EARTH
卫星名称:
SOLRAD 1 (GREB)
卫星全名:
--
卫星状态:
在轨 (已飞行24101 天)
发射日期:
1960-06-22 UTC
国别 :
美国 (US)
星等 :
--
轨道信息
数据来源 国际轨道数据 AOE轨道数据
星历时间 2026-06-17T20:43:53+0800
5小时前
查看轨道信息
2026-06-14T04:00:00+0800
3天前
查看轨道信息
半长轴 7087.911km 7087.937km
偏心率 0.0201893 0.0201848
轨道倾角 66.687° 66.688°
近地点辐角 292.281° 295.025°
升交点赤经 227.307° 237.386°
平近点角 65.700° 141.824°
近地点 566.674km 566.731km
远地点 852.874km 852.869km
周期 98.978分钟 98.978分钟
每日圈数 14.548742 14.548661
详细信息
使用方式:
暂无
2D轨道图
3D轨道图
轨道高度分析图
轨道倾角分析图
轨道综合分析图
查看轨道综合分析图